Location: Killarney Provincial Park Observatory
(46.0124°N, 81.4000°W)
Time: 00:25:15
(UTC-04:00)

Iridium 22 - Visible Passes

Search period start: 02 September 2015 00:00
Search period end: 12 September 2015 00:00
Orbit: 776 x 779 km, 86.4° (Epoch: 01 September)

Date Brightness Start Highest point End Pass type
(mag) Time Alt. Az. Time Alt. Az. Time Alt. Az.
02 Sep 7.4 00:53:50 10° NNE 00:56:20 25° NNE 00:56:20 25° NNE visible
02 Sep 7.5 02:34:46 10° NNW 02:36:47 20° NW 02:36:47 20° NW visible
03 Sep 7.7 00:20:53 10° NNE 00:22:45 17° NE 00:22:45 17° NE visible
03 Sep 7.3 02:00:50 10° NNW 02:03:13 26° NNW 02:03:13 26° NNW visible
03 Sep 8.1 23:48:44 10° NE 23:49:10 11° NE 23:49:10 11° NE visible
04 Sep 7.3 01:27:10 10° N 01:29:38 29° N 01:29:38 29° N visible
05 Sep 7.4 00:53:44 10° N 00:56:04 25° NNE 00:56:04 25° NNE visible
05 Sep 7.9 02:35:17 10° NNW 02:36:31 15° NW 02:36:31 15° NW visible
06 Sep 7.7 00:20:34 10° NNE 00:22:30 20° NNE 00:22:30 20° NNE visible
06 Sep 7.7 02:01:07 10° NNW 02:02:57 20° NNW 02:02:57 20° NNW visible
06 Sep 7.9 23:47:49 10° NNE 23:48:56 13° NE 23:48:56 13° NE visible
07 Sep 7.5 01:27:18 10° N 01:29:23 24° NNW 01:29:23 24° NNW visible
08 Sep 7.5 00:53:44 10° N 00:55:50 25° N 00:55:50 25° N visible
08 Sep 8.2 02:36:03 10° NW 02:36:17 11° NW 02:36:17 11° NW visible
09 Sep 7.6 00:20:23 10° N 00:22:17 21° NNE 00:22:17 21° NNE visible
09 Sep 8.0 02:01:31 10° NNW 02:02:44 16° NW 02:02:44 16° NW visible
09 Sep 7.8 23:47:21 10° NNE 23:48:44 16° NNE 23:48:44 16° NNE visible
10 Sep 7.8 01:27:31 10° NNW 01:29:11 20° NNW 01:29:11 20° NNW visible
10 Sep 8.0 23:14:56 10° NE 23:15:11 11° NE 23:15:11 11° NE visible
11 Sep 7.7 00:53:49 10° N 00:55:38 22° N 00:55:38 22° N visible
